Weather History for Creston, IA

Change the Weather History Date:

Thursday, January 24, 2013

  Actual Average Record
Temperature  
Mean Temperature 10 °F -  
Max Temperature 19 °F 33 °F 63 °F (1981)
Min Temperature 1 °F 14 °F -13 °F (1963)
Degree Days  
Heating Degree Days 55    
Moisture  
Dew Point -7 °F    
Average Humidity 47    
Maximum Humidity 66    
Minimum Humidity 30    
Precipitation  
Precipitation 0.00 in - - ()
Sea Level Pressure  
Sea Level Pressure 30.39 in    
Wind  
Wind Speed 12 mph (East)    
Max Wind Speed 17 mph    
Max Gust Speed 22 mph    
Visibility 10 miles    
Events      
Averages and records for this station are not official NWS values.
T = Trace of Precipitation, MM = Missing Value Source: NWS Daily Summary

Daily Weather History Graph

Daily Weather History Graph

Search for Another Location

Airport:

Trip Planner

Search our weather history database for the weather conditions in past years. The results will help you decide how hot, cold, wet, or windy it might be!

Date:

Astronomy

Jan. 24, 2013 Rise Set
Actual Time 7:34 AM CST 5:24 PM CST
Civil Twilight 7:05 AM CST 5:54 PM CST
Nautical Twilight 6:31 AM CST 6:27 PM CST
Astronomical Twilight 5:59 AM CST 7:00 PM CST
Moon 3:27 PM CST (1/24) 5:33 AM CST (1/24)
Length of Visible Light 10h 49m
Length of Day
9h 50m
Waxing Gibbous, 94% of the Moon is Illuminated
Jan 24
Waxing Gibbous
Jan 26
Full
Feb 3
Last Quarter
Feb 10
New
Feb 17
First Quarter

Hourly Weather History & Observations

Time (CST) Temp. Windchill Dew Point Humidity Pressure Visibility Wind Dir Wind Speed Gust Speed Precip Events Conditions
12:15 AM 3.2 °F -13.9 °F -7.6 °F 61% 30.49 in 10.0 mi NNE 12.7 mph - N/A   Clear
12:35 AM 3.2 °F -15.3 °F -7.6 °F 61% 30.49 in 10.0 mi NNE 15.0 mph - N/A   Clear
12:55 AM 3.2 °F -16.5 °F -7.6 °F 61% 30.48 in 10.0 mi North 17.3 mph - N/A   Clear
1:15 AM 3.2 °F -14.6 °F -7.6 °F 61% 30.48 in 10.0 mi NNE 13.8 mph - N/A   Clear
1:35 AM 3.2 °F -14.6 °F -7.6 °F 61% 30.49 in 10.0 mi NNE 13.8 mph - N/A   Clear
1:55 AM 3.2 °F -11.3 °F -7.6 °F 61% 30.50 in 10.0 mi NNE 9.2 mph - N/A   Clear
2:15 AM 3.2 °F -14.6 °F -7.6 °F 61% 30.49 in 10.0 mi NNE 13.8 mph - N/A   Clear
2:35 AM 3.2 °F -13.9 °F -7.6 °F 61% 30.50 in 10.0 mi NNE 12.7 mph - N/A   Clear
2:55 AM 3.2 °F -12.2 °F -7.6 °F 61% 30.51 in 10.0 mi NNE 10.4 mph - N/A   Clear
3:15 AM 3.2 °F -10.3 °F -7.6 °F 61% 30.52 in 10.0 mi NNE 8.1 mph - N/A   Clear
3:35 AM 3.2 °F -9.1 °F -7.6 °F 61% 30.52 in 10.0 mi NNE 6.9 mph - N/A   Clear
3:55 AM 3.2 °F -6.2 °F -7.6 °F 61% 30.53 in 10.0 mi NNE 4.6 mph - N/A   Clear
4:15 AM 3.2 °F -12.2 °F -7.6 °F 61% 30.53 in 10.0 mi NNE 10.4 mph - N/A   Clear
4:35 AM 1.4 °F -11.3 °F -7.6 °F 66% 30.51 in 10.0 mi NE 6.9 mph - N/A   Clear
4:55 AM 3.2 °F -13.9 °F -7.6 °F 61% 30.51 in 10.0 mi NE 12.7 mph - N/A   Clear
5:15 AM 3.2 °F -15.3 °F -7.6 °F 61% 30.50 in 10.0 mi NE 15.0 mph - N/A   Clear
5:35 AM 1.4 °F -13.5 °F -7.6 °F 66% 30.51 in 10.0 mi NE 9.2 mph - N/A   Clear
5:55 AM 1.4 °F -9.9 °F -7.6 °F 66% 30.52 in 10.0 mi NE 5.8 mph - N/A   Clear
6:15 AM 1.4 °F -9.9 °F -7.6 °F 66% 30.50 in 10.0 mi ENE 5.8 mph - N/A   Clear
6:35 AM 1.4 °F -11.3 °F -7.6 °F 66% 30.51 in 10.0 mi ENE 6.9 mph - N/A   Clear
6:55 AM 1.4 °F -15.3 °F -7.6 °F 66% 30.50 in 10.0 mi ENE 11.5 mph - N/A   Clear
7:15 AM 3.2 °F -12.2 °F -7.6 °F 61% 30.51 in 10.0 mi ENE 10.4 mph - N/A   Clear
7:35 AM 3.2 °F -13.9 °F -7.6 °F 61% 30.51 in 10.0 mi ENE 12.7 mph - N/A   Clear
7:55 AM 3.2 °F -13.1 °F -7.6 °F 61% 30.53 in 10.0 mi ENE 11.5 mph - N/A   Clear
8:15 AM 3.2 °F -13.9 °F -7.6 °F 61% 30.52 in 10.0 mi ENE 12.7 mph 17.3 mph N/A   Clear
8:35 AM 3.2 °F -12.2 °F -7.6 °F 61% 30.53 in 10.0 mi East 10.4 mph - N/A   Clear
8:55 AM 3.2 °F -12.2 °F -7.6 °F 61% 30.52 in 10.0 mi East 10.4 mph - N/A   Clear
9:15 AM 5.0 °F -11.6 °F -7.6 °F 56% 30.52 in 10.0 mi East 12.7 mph - N/A   Clear
9:35 AM 6.8 °F -10.7 °F -7.6 °F 52% 30.51 in 10.0 mi East 15.0 mph - N/A   Clear
9:55 AM 6.8 °F -11.8 °F -7.6 °F 52% 30.51 in 10.0 mi East 17.3 mph - N/A   Clear
10:15 AM 8.6 °F -8.9 °F -7.6 °F 48% 30.49 in 10.0 mi East 16.1 mph - N/A   Clear
10:35 AM 10.4 °F -6.6 °F -7.6 °F 44% 30.49 in 10.0 mi ESE 16.1 mph - N/A   Clear
10:55 AM 10.4 °F -5.4 °F -7.6 °F 44% 30.49 in 10.0 mi East 13.8 mph 18.4 mph N/A   Clear
11:15 AM 10.4 °F -4.1 °F -7.6 °F 44% 30.49 in 10.0 mi ESE 11.5 mph - N/A   Clear
11:35 AM 10.4 °F -5.4 °F -7.6 °F 44% 30.46 in 10.0 mi East 13.8 mph - N/A   Clear
11:55 AM 12.2 °F -4.8 °F -7.6 °F 41% 30.44 in 10.0 mi ESE 17.3 mph 21.9 mph N/A   Clear
12:15 PM 12.2 °F -3.1 °F -7.6 °F 41% 30.44 in 10.0 mi ESE 13.8 mph - N/A   Clear
12:35 PM 14.0 °F 2.0 °F -7.6 °F 38% 30.42 in 10.0 mi ESE 9.2 mph - N/A   Clear
12:55 PM 15.8 °F 2.7 °F -9.4 °F 32% 30.42 in 10.0 mi SE 11.5 mph 16.1 mph N/A   Clear
1:15 PM 15.8 °F 4.2 °F -7.6 °F 35% 30.39 in 10.0 mi SE 9.2 mph - N/A   Clear
1:35 PM 15.8 °F 1.4 °F -9.4 °F 32% 30.38 in 10.0 mi ESE 13.8 mph 17.3 mph N/A   Clear
1:55 PM 15.8 °F 2.7 °F -7.6 °F 35% 30.36 in 10.0 mi ESE 11.5 mph - N/A   Clear
2:15 PM 15.8 °F 3.4 °F -9.4 °F 32% 30.36 in 10.0 mi ESE 10.4 mph - N/A   Clear
2:35 PM 17.6 °F 3.2 °F -9.4 °F 30% 30.33 in 10.0 mi SE 15.0 mph - N/A   Clear
2:55 PM 17.6 °F 4.3 °F -9.4 °F 30% 30.33 in 10.0 mi SE 12.7 mph 16.1 mph N/A   Clear
3:15 PM 17.6 °F 5.0 °F -7.6 °F 32% 30.32 in 10.0 mi SE 11.5 mph 17.3 mph N/A   Clear
3:35 PM 17.6 °F 3.7 °F -9.4 °F 30% 30.30 in 10.0 mi ESE 13.8 mph 17.3 mph N/A   Clear
3:55 PM 17.6 °F 3.7 °F -9.4 °F 30% 30.29 in 10.0 mi ESE 13.8 mph - N/A   Clear
4:15 PM 17.6 °F 3.2 °F -9.4 °F 30% 30.28 in 10.0 mi ESE 15.0 mph - N/A   Clear
4:35 PM 17.6 °F 3.2 °F -9.4 °F 30% 30.27 in 10.0 mi ESE 15.0 mph - N/A   Clear
4:55 PM 17.6 °F 2.7 °F -9.4 °F 30% 30.27 in 10.0 mi ESE 16.1 mph - N/A   Clear
5:15 PM 17.6 °F 3.7 °F -9.4 °F 30% 30.27 in 10.0 mi SE 13.8 mph - N/A   Clear
5:35 PM 17.6 °F 3.7 °F -7.6 °F 32% 30.26 in 10.0 mi SE 13.8 mph - N/A   Clear
5:55 PM 17.6 °F 2.7 °F -7.6 °F 32% 30.25 in 10.0 mi SE 16.1 mph - N/A   Clear
6:15 PM 17.6 °F 4.3 °F -7.6 °F 32% 30.24 in 10.0 mi SE 12.7 mph - N/A   Clear
6:35 PM 17.6 °F 3.7 °F -5.8 °F 35% 30.24 in 10.0 mi ESE 13.8 mph 18.4 mph N/A   Clear
6:55 PM 17.6 °F 2.7 °F -5.8 °F 35% 30.22 in 10.0 mi ESE 16.1 mph - N/A   Clear
7:15 PM 17.6 °F 3.7 °F -5.8 °F 35% 30.21 in 10.0 mi SE 13.8 mph - N/A   Mostly Cloudy
7:35 PM 17.6 °F 3.7 °F -5.8 °F 35% 30.19 in 10.0 mi SE 13.8 mph - N/A   Mostly Cloudy
7:55 PM 17.6 °F 4.3 °F -4.0 °F 38% 30.20 in 10.0 mi SE 12.7 mph - N/A   Scattered Clouds
8:15 PM 17.6 °F 3.2 °F -4.0 °F 38% 30.20 in 10.0 mi SE 15.0 mph - N/A   Scattered Clouds
8:35 PM 17.6 °F 3.7 °F -2.2 °F 42% 30.20 in 10.0 mi SE 13.8 mph - N/A   Mostly Cloudy
8:55 PM 17.6 °F 6.4 °F -2.2 °F 42% 30.21 in 10.0 mi SE 9.2 mph - N/A   Overcast
9:15 PM 19.4 °F 7.2 °F -2.2 °F 39% 30.23 in 10.0 mi SSE 11.5 mph - N/A   Overcast
9:35 PM 19.4 °F 5.0 °F -2.2 °F 39% 30.18 in 10.0 mi SE 16.1 mph - N/A   Overcast
9:55 PM 19.4 °F 7.2 °F -2.2 °F 39% 30.20 in 10.0 mi SSE 11.5 mph - N/A   Overcast
10:15 PM 19.4 °F 8.6 °F -0.4 °F 42% 30.19 in 10.0 mi SSE 9.2 mph - N/A   Overcast
10:35 PM 19.4 °F 10.4 °F -0.4 °F 42% 30.22 in 10.0 mi South 6.9 mph - N/A   Overcast
10:55 PM 19.4 °F 8.6 °F -0.4 °F 42% 30.21 in 10.0 mi SSE 9.2 mph - N/A   Overcast
11:15 PM 19.4 °F 8.6 °F -0.4 °F 42% 30.20 in 10.0 mi South 9.2 mph - N/A   Overcast
11:35 PM 19.4 °F 7.2 °F 3.2 °F 49% 30.21 in 10.0 mi South 11.5 mph - N/A   Overcast
11:55 PM 19.4 °F 7.9 °F 5.0 °F 54% 30.20 in 10.0 mi SSW 10.4 mph - N/A   Overcast